Vertical_Velocity
1 -1 -1 1 -3 -0 1 0 -0 0 1 1 -0 2 -3 2 2 0 1 1 2 0 1 1 -3 1 3 -2 -2 6 6 -10 -9 -5 -4 -1 -1 1 9 1 -5 -2 -1 3 -5
0 -1 -0 -4 2 -1 -0 0 0 0 -0 -0 2 0 -2 -2 3 1 0 1 1 -0 2 2 -3 -6 7 1 -8 6 5 -6 -6 -6 -2 5 -4 2 1 2 2 -0 -2 1 2
-1 -1 -2 -0 -0 -1 1 -0 -0 1 0 1 1 -1 1 1 2 0 4 -5 1 2 7 -2 -1 -6 -0 0 -4 2 4 1 4 -5 -2 -3 -5 -1 -2 3 -0 -1 1 -3 0
-1 -1 -0 -1 -0 1 -1 -1 1 -1 -0 1 0 0 1 -0 -1 2 4 -2 -2 0 7 1 -4 -5 2 -5 -5 0 3 1 -2 -4 10 -4 -2 5 -1 3 4 -2 2 0 -4
-1 -0 -0 1 -0 1 -2 -0 -1 -1 -1 0 -1 1 3 1 3 -2 2 3 -0 -1 -1 -7 2 -1 -3 1 -4 -6 -1 1 2 4 -2 3 -3 -3 -1 5 -3 -1 2 1 -1
-1 -1 1 -2 -1 0 -0 0 -0 0 -1 -2 1 1 0 -0 2 -1 2 -0 -0 1 2 4 2 -2 1 1 2 -8 2 3 -3 -2 -2 -3 -0 -5 -2 -1 1 3 4 2 2
-1 0 -1 -1 -1 -2 -0 -1 1 0 -2 1 -2 1 0 8 -1 2 -1 3 1 2 0 6 0 -4 2 2 6 1 7 -2 1 -4 -11 -4 -8 -2 -1 5 0 6 1 4 6
-2 -0 -1 -0 -1 -0 -0 -1 -2 -1 1 1 0 3 0 -0 2 -1 -2 -1 3 0 -0 4 2 -1 -2 5 4 1 4 -5 4 4 5 -9 -3 -10 3 4 -4 -1 -1 -1 3
0 1 1 0 1 -2 -2 -2 -2 1 -1 -0 1 1 4 -0 -2 -1 -3 3 -0 2 2 2 3 2 0 -1 1 0 0 -1 -3 -9 5 -1 -2 -13 -6 -3 -3 -3 2 1 -4
-0 -1 -1 -2 -1 -2 -4 -2 -2 -0 0 -3 -0 2 -1 4 -3 -0 -2 0 -0 1 3 -1 0 5 4 6 -4 3 -3 -3 -2 -7 2 5 -3 9 -15 -7 -2 -4 -3 -3 -3
-0 -1 -2 -1 -0 -1 -2 -2 -2 -3 -1 -2 4 -0 -1 3 1 -2 -0 1 -1 3 2 -1 0 4 -0 -5 -2 0 -2 5 -1 -6 0 1 4 3 -5 -4 -7 -3 -10 -0 1
-1 -2 -2 -1 0 -4 -1 0 -4 -3 -1 -1 -0 -2 6 1 3 -4 3 -1 -1 -1 3 3 4 2 -4 -2 -1 -2 -2 2 6 -2 -7 3 3 -4 16 1 -4 -6 -1 -2 5
-1 -1 -2 -1 -2 -4 -6 1 -3 -1 -1 -0 -3 -5 -1 -3 -2 2 1 -0 -3 2 2 -1 5 -7 -1 -1 0 4 2 -1 -5 1 -0 -1 2 5 7 3 -0 -4 -5 3 14
-1 -1 -1 -1 -4 -2 -0 1 -2 2 -5 5 4 7 4 5 6 -7 -0 -2 3 2 1 -1 2 0 1 2 -1 3 -6 -1 -5 3 1 5 -7 -2 9 -2 2 -1 5 8 14
-1 -0 -1 -1 -4 -2 5 -5 -4 3 -6 5 -6 -2 -6 8 -5 7 -7 3 4 -0 -1 -0 -1 -1 3 0 -4 1 -3 -1 4 -0 -1 11 -7 -12 -1 -13 2 3 -10 5 12
0 -1 1 -0 -2 3 1 -5 2 -2 -2 -8 1 5 -3 4 3 -1 3 -1 -3 -4 -3 -0 -4 -3 0 -5 -2 3 -1 4 2 -3 2 2 -1 1 -6 0 -1 7 18 -15 -2
-0 -0 -0 -1 -0 -1 -1 -1 -3 -6 8 2 6 6 1 5 -3 -4 9 4 2 4 8 -1 1 0 -1 -2 -1 3 -3 -1 2 -2 -3 -1 3 -7 3 10 6 -2 -3 4 5
-0 -0 0 -2 0 2 2 -2 -4 9 13 10 -11 -11 -4 0 -1 -3 -3 1 1 0 -3 -4 -2 7 -6 1 2 5 -4 0 0 2 -8 -1 -1 -7 -1 0 9 6 -3 -29 -21
-1 0 0 0 1 -0 -1 -4 2 9 -1 -3 -2 0 6 -5 4 -5 -2 8 -2 1 -1 1 4 -6 -9 -5 2 4 2 1 2 3 -1 2 -1 -1 -6 -3 2 9 -14 -52 38
-2 1 1 -2 -0 1 -1 0 9 2 1 5 -0 -6 2 1 -2 -5 -3 8 2 -4 -2 1 7 0 1 -3 -3 5 1 -2 0 -1 -2 2 4 -0 -5 1 -1 -3 7 26 31
1 1 -5 2 0 0 -1 3 3 6 1 7 3 -1 -2 -10 0 -7 3 5 2 1 1 6 0 -3 -2 -4 3 -4 2 1 0 -4 -4 -6 9 -1 5 5 6 4 9 -2 7
3 0 -2 0 -2 -1 0 -1 2 11 -1 2 8 5 3 -3 -1 -4 -8 -1 -2 1 -2 14 -4 0 -6 -3 10 -4 3 -1 -1 4 -1 -1 -8 6 8 6 6 2 6 -2 -36
2 0 -2 3 0 3 2 -1 2 10 -3 3 7 -3 -5 -0 7 -2 -5 -5 -2 -1 -7 11 -1 -4 3 2 1 2 -2 -1 -2 -3 1 -4 -6 6 -0 2 -4 -2 0 -9 -0
0 -7 -1 2 -4 2 -2 3 6 8 -2 1 11 4 -2 2 2 -5 -4 -2 1 -2 0 3 -0 -3 -1 -4 -1 -5 1 2 -2 -5 1 2 -2 4 5 5 -16 -5 1 -6 -41
-3 2 10 4 1 1 -2 -1 3 6 -3 -2 6 5 -7 -2 -2 -2 1 2 1 -1 -1 1 -3 -2 -1 2 3 -2 -1 10 -1 4 -7 -1 -9 10 6 6 -9 -10 -19 -2 -3
2 5 4 4 -1 1 4 5 0 -5 -3 -6 4 8 0 -3 1 3 4 6 -3 -3 -4 -4 -4 -4 -3 1 2 3 9 5 -0 -4 -1 -2 5 11 7 -1 -6 -1 -18 -10 -18
6 7 4 2 -1 2 -13 -10 1 -5 -10 -10 5 -8 -3 -1 8 7 8 2 -6 -9 -6 3 -6 1 -2 -3 -1 8 7 2 -9 -1 -7 2 -2 6 8 10 20 -7 -2 -2 -10
Height
5899 5901 5903 5904 5906 5907 5907 5909 5911 5912 5914 5915 5918 5921 5924 5924 5926 5928 5929 5930 5932 5934 5935 5937 5938 5938 5939 5940 5943 5943 5944 5945 5942 5940 5940 5943 5944 5943 5944 5941 5938 5935 5932 5930 5925
5897 5899 5901 5902 5904 5905 5905 5907 5910 5912 5913 5914 5917 5920 5923 5925 5926 5928 5930 5930 5933 5935 5936 5938 5939 5938 5941 5942 5943 5944 5944 5945 5944 5943 5941 5944 5945 5945 5945 5943 5941 5938 5935 5931 5927
5895 5897 5899 5901 5903 5904 5905 5906 5908 5910 5912 5914 5917 5921 5923 5925 5926 5928 5930 5931 5933 5935 5936 5937 5937 5938 5941 5943 5943 5944 5944 5943 5945 5945 5945 5945 5945 5946 5946 5946 5944 5940 5937 5934 5930
5892 5894 5897 5899 5901 5902 5904 5905 5907 5909 5911 5914 5916 5920 5923 5925 5928 5928 5930 5931 5933 5934 5935 5936 5937 5936 5940 5942 5942 5944 5947 5946 5946 5948 5950 5946 5947 5949 5948 5947 5943 5940 5938 5935 5931
5889 5891 5894 5896 5899 5901 5902 5904 5906 5907 5910 5913 5916 5919 5922 5925 5926 5928 5930 5931 5933 5934 5935 5935 5936 5938 5939 5942 5943 5942 5944 5946 5947 5948 5949 5949 5946 5947 5948 5947 5944 5940 5939 5936 5932
5885 5888 5891 5893 5896 5898 5900 5901 5903 5906 5908 5911 5914 5918 5922 5924 5925 5927 5930 5931 5932 5933 5935 5937 5939 5939 5941 5943 5944 5942 5945 5946 5946 5946 5947 5948 5947 5946 5947 5946 5944 5942 5941 5937 5933
5881 5883 5886 5890 5893 5895 5897 5899 5901 5904 5906 5909 5912 5916 5920 5923 5924 5926 5928 5930 5931 5934 5935 5937 5939 5940 5941 5943 5945 5945 5947 5946 5947 5947 5947 5947 5946 5946 5945 5946 5944 5941 5941 5938 5935
5876 5879 5882 5885 5888 5891 5894 5897 5899 5901 5903 5906 5910 5913 5917 5920 5922 5925 5927 5929 5930 5933 5934 5935 5938 5939 5941 5943 5944 5945 5946 5945 5947 5947 5947 5946 5946 5944 5944 5944 5941 5939 5939 5936 5934
5870 5874 5877 5880 5884 5888 5891 5893 5895 5898 5901 5904 5907 5911 5914 5918 5920 5923 5924 5927 5928 5931 5933 5934 5937 5938 5939 5940 5943 5944 5944 5943 5944 5942 5946 5946 5945 5941 5939 5939 5937 5937 5935 5934 5930
5864 5868 5872 5876 5880 5883 5887 5889 5892 5895 5898 5902 5904 5909 5912 5916 5918 5920 5923 5925 5926 5929 5931 5933 5934 5937 5939 5939 5940 5942 5941 5943 5943 5943 5944 5945 5944 5942 5936 5936 5935 5935 5935 5933 5930
5858 5862 5866 5870 5874 5877 5881 5886 5890 5894 5895 5898 5902 5904 5908 5912 5914 5918 5920 5922 5925 5927 5928 5930 5934 5936 5935 5935 5937 5939 5940 5943 5941 5940 5942 5942 5943 5941 5938 5934 5934 5935 5935 5933 5930
5851 5856 5860 5864 5868 5872 5875 5880 5883 5888 5891 5894 5898 5901 5905 5908 5911 5914 5917 5920 5922 5923 5925 5929 5931 5931 5932 5933 5935 5937 5938 5940 5942 5939 5939 5941 5941 5939 5938 5934 5933 5933 5934 5933 5931
5844 5848 5853 5857 5862 5866 5868 5875 5879 5884 5888 5891 5894 5897 5901 5904 5906 5910 5913 5915 5918 5920 5922 5924 5927 5926 5928 5932 5933 5935 5937 5937 5937 5937 5938 5938 5939 5937 5936 5933 5931 5932 5932 5932 5932
5836 5840 5845 5850 5856 5859 5864 5871 5874 5880 5884 5889 5891 5895 5897 5901 5904 5905 5908 5912 5915 5917 5919 5920 5923 5924 5927 5930 5931 5933 5932 5933 5933 5935 5937 5937 5935 5934 5932 5931 5929 5928 5930 5930 5931
5828 5832 5837 5843 5848 5853 5860 5865 5867 5874 5877 5884 5885 5889 5892 5897 5899 5902 5903 5907 5910 5913 5916 5918 5919 5921 5924 5927 5926 5929 5929 5930 5933 5933 5934 5935 5931 5928 5927 5926 5926 5927 5929 5929 5929
5822 5825 5829 5834 5839 5847 5854 5856 5863 5869 5872 5876 5881 5885 5888 5891 5895 5897 5900 5903 5905 5908 5910 5914 5915 5917 5920 5922 5923 5926 5926 5930 5930 5930 5931 5930 5928 5927 5923 5924 5926 5927 5927 5926 5925
5817 5820 5823 5826 5831 5839 5845 5848 5854 5858 5869 5872 5875 5880 5883 5887 5889 5892 5896 5899 5902 5905 5908 5911 5912 5915 5919 5920 5921 5923 5924 5925 5927 5927 5926 5926 5924 5923 5923 5924 5924 5922 5922 5919 5917
5812 5815 5817 5819 5825 5831 5834 5840 5846 5857 5864 5865 5867 5873 5877 5881 5884 5887 5890 5895 5898 5901 5904 5905 5909 5913 5914 5917 5918 5920 5921 5922 5923 5924 5923 5923 5921 5919 5918 5919 5919 5919 5914 5903 5882
5806 5809 5811 5816 5818 5822 5827 5831 5841 5852 5856 5856 5862 5865 5870 5874 5879 5881 5885 5890 5893 5897 5900 5903 5906 5906 5907 5910 5914 5916 5918 5919 5920 5920 5921 5921 5918 5913 5911 5914 5914 5913 5910 5903 5879
5798 5803 5807 5810 5812 5816 5820 5827 5837 5845 5850 5852 5858 5862 5866 5869 5873 5876 5880 5886 5890 5892 5896 5900 5904 5904 5906 5908 5910 5913 5915 5915 5916 5917 5917 5917 5915 5913 5911 5910 5907 5907 5910 5909 5905
5792 5796 5800 5802 5806 5811 5816 5822 5830 5836 5842 5848 5852 5854 5857 5861 5866 5870 5876 5881 5884 5888 5891 5896 5899 5902 5902 5905 5908 5910 5911 5912 5913 5913 5911 5911 5913 5910 5910 5909 5908 5908 5907 5904 5902
5783 5789 5792 5797 5802 5806 5811 5814 5822 5828 5833 5840 5847 5849 5852 5857 5863 5866 5871 5875 5879 5884 5887 5892 5894 5897 5899 5901 5905 5906 5907 5908 5908 5910 5907 5906 5907 5906 5905 5907 5906 5905 5903 5899 5901
5775 5781 5785 5790 5796 5800 5804 5807 5811 5817 5821 5832 5838 5843 5847 5853 5860 5863 5866 5869 5875 5879 5881 5887 5888 5893 5897 5900 5900 5901 5902 5903 5904 5904 5904 5903 5901 5901 5901 5901 5901 5900 5898 5891 5886
5769 5772 5776 5781 5785 5792 5798 5803 5808 5811 5814 5823 5832 5837 5840 5848 5854 5857 5861 5865 5869 5874 5879 5882 5885 5888 5893 5896 5896 5896 5899 5901 5900 5900 5900 5899 5897 5896 5896 5893 5893 5893 5892 5894 5887
5761 5764 5770 5777 5781 5786 5792 5798 5803 5806 5809 5819 5827 5832 5834 5843 5848 5851 5855 5858 5863 5867 5872 5877 5880 5884 5887 5891 5892 5894 5896 5897 5896 5896 5894 5894 5891 5892 5891 5887 5885 5883 5882 5883 5885
5754 5759 5765 5770 5775 5781 5787 5792 5796 5801 5804 5814 5822 5828 5829 5838 5841 5845 5848 5852 5857 5864 5869 5872 5875 5879 5883 5885 5887 5889 5892 5893 5891 5889 5888 5887 5889 5889 5887 5879 5881 5879 5880 5877 5876
5746 5750 5756 5761 5767 5773 5777 5783 5789 5794 5798 5804 5816 5817 5822 5830 5835 5840 5843 5848 5855 5860 5865 5868 5871 5874 5878 5880 5882 5882 5888 5885 5880 5881 5883 5883 5884 5884 5885 5886 5880 5878 5881 5882 5875